This is the latest recevied weather packets stored in our database for station/object HS5BOG-13. If no packets are shown the sender has not sent any weather packets the latest 10 day(s).
| Time | Temp. | Humidity | Pressure | Rain* | Wind** | Luminosity | Snow |
|---|---|---|---|---|---|---|---|
| 1778066502 | 32.78° C | 57% | 987.4 hPa | - | - | - | - |
| 1778065896 | 32.78° C | 57% | 987.3 hPa | - | - | - | - |
| 1778065290 | 32.78° C | 58% | 987.4 hPa | - | - | - | - |
| 1778064685 | 32.78° C | 58% | 987.3 hPa | - | - | - | - |
| 1778064079 | 32.78° C | 57% | 987.1 hPa | - | - | - | - |
| 1778063474 | 32.78° C | 57% | 987 hPa | - | - | - | - |
| 1778062868 | 32.78° C | 58% | 987 hPa | - | - | - | - |
| 1778062263 | 32.78° C | 55% | 987 hPa | - | - | - | - |
| 1778061657 | 32.78° C | 56% | 987 hPa | - | - | - | - |
| 1778061052 | 32.78° C | 58% | 987 hPa | - | - | - | - |
| 1778060446 | 32.78° C | 57% | 987 hPa | - | - | - | - |
| 1778059841 | 32.78° C | 59% | 987.1 hPa | - | - | - | - |
| 1778059235 | 32.78° C | 57% | 987.1 hPa | - | - | - | - |
| 1778058629 | 32.78° C | 57% | 987.3 hPa | - | - | - | - |
| 1778058024 | 32.78° C | 60% | 987.1 hPa | - | - | - | - |
| 1778057418 | 32.78° C | 59% | 987.1 hPa | - | - | - | - |
| 1778056813 | 32.78° C | 59% | 987.2 hPa | - | - | - | - |
| 1778056207 | 32.78° C | 59% | 987.4 hPa | - | - | - | - |
| 1778055601 | 32.78° C | 59% | 987.6 hPa | - | - | - | - |
| 1778054996 | 32.78° C | 60% | 987.7 hPa | - | - | - | - |
| 1778054390 | 32.78° C | 61% | 987.9 hPa | - | - | - | - |
| 1778053785 | 32.78° C | 60% | 987.9 hPa | - | - | - | - |
| 1778053179 | 32.78° C | 61% | 988 hPa | - | - | - | - |
| 1778052574 | 32.78° C | 62% | 988.3 hPa | - | - | - | - |
| 1778051968 | 32.78° C | 63% | 988.6 hPa | - | - | - | - |
* Rain since midnight (hover to see other rain measurements)
** Current wind speed in m/s (hover to see current wind gust speed)